Radiation Dose at Monitoring Post of Fukushima Daini Nuclear Power Station
Date,Time,MP-1(microSv/h),MP-2(microSv/h),MP-3(microSv/h),MP-4(microSv/h),MP-5(microSv/h),MP-6(microSv/h),MP-7(microSv/h),Wind Direction,Wind Velocity(m/s),Rain
2020/11/02,00:00,0.179,0.158,0.257,0.244,0.245,0.138,0.084,south,5.5,No
2020/11/02,00:10,0.177,0.157,0.257,0.244,0.244,0.139,0.084,south-southwest,5.4,No
2020/11/02,00:20,0.180,0.157,0.257,0.244,0.244,0.139,0.084,south-southwest,5.5,No
2020/11/02,00:30,0.177,0.157,0.257,0.246,0.245,0.139,0.084,south-southwest,6.1,No
2020/11/02,00:40,0.178,0.158,0.258,0.243,0.244,0.138,0.083,southwest,6.0,No
2020/11/02,00:50,0.178,0.157,0.258,0.246,0.246,0.139,0.084,southwest,5.3,No
2020/11/02,01:00,0.179,0.156,0.258,0.242,0.245,0.139,0.084,south-southwest,7.3,No
2020/11/02,01:10,0.178,0.157,0.257,0.245,0.246,0.139,0.083,south-southwest,8.8,No
2020/11/02,01:20,0.178,0.157,0.256,0.244,0.242,0.139,0.084,south-southwest,7.0,No
2020/11/02,01:30,0.178,0.157,0.259,0.245,0.245,0.138,0.084,south-southwest,6.5,No
2020/11/02,01:40,0.178,0.157,0.257,0.243,0.244,0.139,0.084,southwest,7.1,No
2020/11/02,01:50,0.178,0.157,0.258,0.244,0.246,0.138,0.082,south-southwest,6.7,No
2020/11/02,02:00,0.179,0.158,0.257,0.244,0.243,0.139,0.084,south-southwest,5.9,No
2020/11/02,02:10,0.177,0.158,0.259,0.245,0.244,0.138,0.084,south-southwest,5.5,No
2020/11/02,02:20,0.177,0.157,0.257,0.245,0.244,0.139,0.084,south-southwest,6.2,No
2020/11/02,02:30,0.179,0.156,0.259,0.243,0.245,0.139,0.084,southwest,7.3,No
2020/11/02,02:40,0.177,0.157,0.257,0.246,0.244,0.139,0.084,southwest,7.0,No
2020/11/02,02:50,0.179,0.158,0.258,0.244,0.246,0.139,0.084,southwest,6.4,No
2020/11/02,03:00,0.177,0.157,0.257,0.245,0.245,0.139,0.084,southwest,6.4,No
2020/11/02,03:10,0.178,0.157,0.258,0.244,0.246,0.138,0.084,south-southwest,6.3,No
2020/11/02,03:20,0.177,0.158,0.257,0.246,0.245,0.138,0.084,south-southwest,5.7,No
2020/11/02,03:30,0.178,0.157,0.257,0.243,0.245,0.139,0.084,southwest,6.1,No
2020/11/02,03:40,0.178,0.158,0.257,0.245,0.245,0.139,0.084,southwest,6.5,No
2020/11/02,03:50,0.178,0.158,0.257,0.243,0.245,0.138,0.084,southwest,6.2,No
2020/11/02,04:00,0.177,0.157,0.259,0.245,0.245,0.138,0.084,southwest,6.4,No
2020/11/02,04:10,0.178,0.157,0.257,0.245,0.247,0.139,0.083,southwest,8.1,No
2020/11/02,04:20,0.177,0.158,0.258,0.245,0.244,0.138,0.084,southwest,7.3,No
2020/11/02,04:30,0.178,0.157,0.256,0.245,0.244,0.138,0.084,south-southwest,6.7,No
2020/11/02,04:40,0.177,0.158,0.259,0.244,0.244,0.139,0.084,southwest,8.1,No
2020/11/02,04:50,0.178,0.156,0.257,0.244,0.245,0.139,0.084,south-southwest,8.5,No
2020/11/02,05:00,0.178,0.157,0.257,0.244,0.243,0.139,0.084,southwest,8.5,No
2020/11/02,05:10,0.179,0.158,0.257,0.244,0.245,0.138,0.084,southwest,7.9,No
2020/11/02,05:20,0.177,0.157,0.257,0.244,0.244,0.139,0.084,south-southwest,8.3,No
2020/11/02,05:30,0.177,0.157,0.257,0.244,0.244,0.138,0.084,south-southwest,6.3,No
2020/11/02,05:40,0.177,0.156,0.257,0.244,0.244,0.139,0.083,south-southwest,7.5,No
2020/11/02,05:50,0.178,0.157,0.258,0.245,0.246,0.138,0.084,south-southwest,7.5,No
2020/11/02,06:00,0.179,0.157,0.256,0.244,0.245,0.139,0.084,south-southwest,7.3,No
2020/11/02,06:10,0.178,0.158,0.257,0.246,0.246,0.139,0.083,south-southwest,6.4,No
2020/11/02,06:20,0.177,0.158,0.257,0.243,0.244,0.139,0.084,south-southwest,5.7,No
2020/11/02,06:30,0.178,0.158,0.258,0.245,0.245,0.138,0.083,south-southwest,7.0,No
2020/11/02,06:40,0.178,0.158,0.258,0.245,0.244,0.140,0.084,south-southwest,6.2,No
2020/11/02,06:50,0.177,0.157,0.259,0.243,0.247,0.139,0.084,south,6.2,No
2020/11/02,07:00,0.177,0.157,0.257,0.243,0.243,0.139,0.084,south,5.8,No
2020/11/02,07:10,0.178,0.157,0.259,0.244,0.246,0.139,0.084,south,8.5,No
2020/11/02,07:20,0.178,0.158,0.257,0.245,0.243,0.139,0.084,south,9.0,No
2020/11/02,07:30,0.178,0.158,0.257,0.243,0.244,0.138,0.083,south,8.4,No
2020/11/02,07:40,0.177,0.157,0.257,0.242,0.244,0.139,0.084,south-southwest,7.3,No
2020/11/02,07:50,0.178,0.156,0.257,0.244,0.245,0.138,0.083,south-southwest,6.7,No
2020/11/02,08:00,0.177,0.157,0.256,0.242,0.244,0.139,0.084,south-southwest,6.0,No
2020/11/02,08:10,0.180,0.157,0.258,0.244,0.243,0.139,0.084,south,6.3,No
2020/11/02,08:20,0.176,0.158,0.257,0.243,0.246,0.139,0.083,south,6.9,No
2020/11/02,08:30,0.178,0.157,0.259,0.246,0.243,0.140,0.084,south,7.1,No
2020/11/02,08:40,0.176,0.157,0.256,0.243,0.245,0.138,0.084,south-southeast,7.3,No
2020/11/02,08:50,0.178,0.156,0.259,0.244,0.243,0.140,0.083,south,8.5,No
2020/11/02,09:00,0.178,0.158,0.257,0.244,0.244,0.137,0.084,south,8.3,No
2020/11/02,09:10,0.178,0.157,0.258,0.244,0.245,0.139,0.084,south,8.1,No
2020/11/02,09:20,0.179,0.157,0.257,0.245,0.244,0.138,0.084,south,7.8,No
2020/11/02,09:30,0.178,0.157,0.257,0.242,0.245,0.138,0.084,south,7.3,No
2020/11/02,09:40,0.178,0.158,0.258,0.245,0.243,0.139,0.084,south,7.6,No
2020/11/02,09:50,0.177,0.157,0.256,0.243,0.243,0.139,0.083,south,7.7,No
2020/11/02,10:00,0.178,0.157,0.257,0.243,0.244,0.139,0.084,south,6.4,No
2020/11/02,10:10,0.178,0.157,0.258,0.245,0.244,0.138,0.084,south,6.1,No
2020/11/02,10:20,0.176,0.156,0.256,0.243,0.245,0.138,0.084,south,6.5,No
2020/11/02,10:30,0.178,0.158,0.259,0.246,0.245,0.140,0.084,south,7.7,Yes
2020/11/02,10:40,0.178,0.158,0.257,0.244,0.244,0.139,0.084,south,6.1,Yes
2020/11/02,10:50,0.177,0.157,0.259,0.245,0.247,0.139,0.084,south-southwest,7.7,No
2020/11/02,11:00,0.178,0.158,0.257,0.244,0.244,0.140,0.084,south-southwest,9.3,No
2020/11/02,11:10,0.177,0.157,0.258,0.244,0.246,0.138,0.084,south-southwest,5.4,No
2020/11/02,11:20,0.179,0.158,0.260,0.245,0.244,0.139,0.083,south-southwest,6.5,Yes
2020/11/02,11:30,0.178,0.157,0.257,0.244,0.242,0.140,0.084,south-southwest,6.5,No
2020/11/02,11:40,0.177,0.158,0.258,0.246,0.247,0.139,0.083,south-southwest,6.4,Yes
2020/11/02,11:50,0.179,0.157,0.259,0.244,0.244,0.140,0.084,south-southwest,8.1,Yes
2020/11/02,12:00,0.177,0.157,0.257,0.245,0.245,0.139,0.085,south-southwest,6.0,Yes
2020/11/02,12:10,0.180,0.159,0.258,0.246,0.247,0.139,0.084,south-southwest,6.3,Yes
2020/11/02,12:20,0.179,0.158,0.259,0.244,0.245,0.140,0.084,south-southwest,7.0,Yes
2020/11/02,12:30,0.178,0.159,0.260,0.245,0.246,0.139,0.084,south-southwest,7.5,Yes
2020/11/02,12:40,0.179,0.157,0.257,0.244,0.244,0.140,0.084,south-southwest,7.3,Yes
2020/11/02,12:50,0.177,0.159,0.260,0.245,0.244,0.141,0.084,south-southwest,6.5,No
2020/11/02,13:00,0.180,0.158,0.259,0.244,0.247,0.139,0.084,southwest,5.1,Yes
2020/11/02,13:10,0.178,0.158,0.259,0.245,0.243,0.140,0.085,southwest,5.5,Yes
2020/11/02,13:20,0.180,0.159,0.260,0.245,0.247,0.139,0.085,south-southwest,5.5,Yes
2020/11/02,13:30,0.180,0.159,0.258,0.247,0.244,0.141,0.086,south,4.3,Yes
2020/11/02,13:40,0.178,0.159,0.260,0.246,0.248,0.141,0.086,south-southwest,5.0,Yes
2020/11/02,13:50,0.181,0.160,0.259,0.246,0.244,0.141,0.086,southwest,4.5,Yes
2020/11/02,14:00,0.180,0.159,0.260,0.246,0.247,0.142,0.087,west-southwest,2.7,Yes
2020/11/02,14:10,0.181,0.159,0.258,0.246,0.245,0.142,0.087,west,1.9,Yes
2020/11/02,14:20,0.179,0.160,0.260,0.246,0.247,0.142,0.087,west-southwest,0.9,Yes
2020/11/02,14:30,0.182,0.159,0.258,0.246,0.246,0.141,0.086,west-southwest,2.2,Yes
2020/11/02,14:40,0.180,0.160,0.260,0.246,0.246,0.141,0.087,west-southwest,2.4,Yes
2020/11/02,14:50,0.181,0.160,0.258,0.245,0.246,0.141,0.087,west,5.1,Yes
2020/11/02,15:00,0.180,0.159,0.259,0.245,0.246,0.142,0.087,west,4.9,Yes
2020/11/02,15:10,0.183,0.160,0.259,0.246,0.246,0.141,0.088,west,4.2,Yes
2020/11/02,15:20,0.180,0.160,0.260,0.246,0.245,0.142,0.087,west,3.2,Yes
2020/11/02,15:30,0.182,0.160,0.259,0.245,0.248,0.142,0.088,west-southwest,1.6,Yes
2020/11/02,15:40,0.180,0.160,0.259,0.244,0.246,0.142,0.087,west-southwest,0.9,Yes
2020/11/02,15:50,0.180,0.160,0.260,0.245,0.245,0.141,0.087,southwest,1.9,Yes
2020/11/02,16:00,0.179,0.159,0.257,0.245,0.246,0.141,0.086,southwest,2.2,Yes
2020/11/02,16:10,0.180,0.159,0.257,0.247,0.245,0.141,0.087,southwest,2.3,Yes
2020/11/02,16:20,0.180,0.160,0.257,0.243,0.247,0.140,0.086,southwest,2.8,Yes
2020/11/02,16:30,0.181,0.159,0.259,0.246,0.245,0.141,0.086,west-southwest,3.0,Yes
2020/11/02,16:40,0.179,0.159,0.257,0.243,0.245,0.140,0.086,west,3.2,Yes
2020/11/02,16:50,0.180,0.159,0.257,0.244,0.244,0.141,0.086,west,2.2,Yes
2020/11/02,17:00,0.179,0.160,0.257,0.244,0.245,0.141,0.087,west-southwest,1.3,Yes
2020/11/02,17:10,0.182,0.158,0.256,0.244,0.245,0.140,0.086,west-southwest,1.0,Yes
2020/11/02,17:20,0.180,0.158,0.258,0.244,0.247,0.140,0.086,south-southwest,0.6,Yes
2020/11/02,17:30,0.179,0.160,0.256,0.243,0.244,0.141,0.086,south-southwest,1.3,Yes
2020/11/02,17:40,0.181,0.159,0.256,0.244,0.245,0.140,0.086,west-southwest,1.7,Yes
2020/11/02,17:50,0.179,0.158,0.256,0.244,0.243,0.139,0.087,west,2.3,No
2020/11/02,18:00,0.179,0.158,0.255,0.243,0.245,0.139,0.085,west,3.8,No
2020/11/02,18:10,0.178,0.157,0.256,0.240,0.242,0.139,0.086,west,3.1,Yes
2020/11/02,18:20,0.178,0.157,0.254,0.242,0.244,0.140,0.085,west-southwest,1.4,Yes
2020/11/02,18:30,0.177,0.157,0.256,0.242,0.243,0.140,0.085,south-southwest,1.5,Yes
2020/11/02,18:40,0.179,0.157,0.255,0.242,0.244,0.139,0.086,south,1.3,Yes
2020/11/02,18:50,0.177,0.156,0.257,0.243,0.244,0.140,0.086,south-southeast,2.2,No
2020/11/02,19:00,0.179,0.157,0.255,0.243,0.244,0.140,0.085,south,2.3,No
2020/11/02,19:10,0.177,0.156,0.256,0.243,0.243,0.139,0.085,south,2.3,No
2020/11/02,19:20,0.178,0.156,0.256,0.241,0.243,0.138,0.085,south,2.3,No
2020/11/02,19:30,0.178,0.158,0.253,0.243,0.243,0.139,0.084,south-southeast,2.3,Yes
2020/11/02,19:40,0.177,0.156,0.256,0.242,0.244,0.138,0.085,south,2.1,Yes
2020/11/02,19:50,0.177,0.157,0.253,0.242,0.244,0.138,0.085,south,1.8,Yes
2020/11/02,20:00,0.177,0.156,0.255,0.242,0.245,0.140,0.085,south,2.6,Yes
2020/11/02,20:10,0.180,0.158,0.255,0.242,0.244,0.139,0.086,south,3.0,Yes
2020/11/02,20:20,0.179,0.158,0.256,0.244,0.246,0.140,0.087,south,2.7,Yes
2020/11/02,20:30,0.180,0.158,0.256,0.244,0.245,0.141,0.086,south-southwest,2.6,Yes
2020/11/02,20:40,0.180,0.160,0.257,0.244,0.245,0.141,0.087,south,2.6,Yes
2020/11/02,20:50,0.182,0.160,0.258,0.243,0.247,0.142,0.089,south,3.3,Yes
2020/11/02,21:00,0.181,0.160,0.255,0.245,0.246,0.142,0.088,east,2.9,Yes
2020/11/02,21:10,0.182,0.160,0.258,0.244,0.248,0.142,0.089,south,1.9,Yes
2020/11/02,21:20,0.182,0.161,0.256,0.244,0.246,0.143,0.089,south,1.8,Yes
2020/11/02,21:30,0.180,0.161,0.256,0.245,0.246,0.142,0.088,southwest,1.7,Yes
2020/11/02,21:40,0.182,0.160,0.257,0.243,0.245,0.142,0.089,west-southwest,1.5,Yes
2020/11/02,21:50,0.180,0.160,0.255,0.242,0.246,0.142,0.087,west,1.1,Yes
2020/11/02,22:00,0.181,0.159,0.257,0.243,0.244,0.142,0.088,west-southwest,2.9,Yes
2020/11/02,22:10,0.179,0.159,0.255,0.243,0.244,0.141,0.088,west-northwest,1.3,Yes
2020/11/02,22:20,0.181,0.159,0.256,0.242,0.243,0.141,0.087,-,CALM,Yes
2020/11/02,22:30,0.178,0.157,0.255,0.242,0.244,0.140,0.087,north-northwest,1.1,Yes
2020/11/02,22:40,0.178,0.158,0.256,0.242,0.245,0.140,0.087,north-northwest,1.3,Yes
2020/11/02,22:50,0.179,0.158,0.255,0.240,0.241,0.140,0.086,west-northwest,2.5,Yes
2020/11/02,23:00,0.177,0.157,0.253,0.242,0.244,0.138,0.086,west-northwest,4.4,Yes
2020/11/02,23:10,0.179,0.159,0.255,0.242,0.242,0.140,0.087,northwest,2.3,Yes
2020/11/02,23:20,0.179,0.159,0.256,0.243,0.246,0.142,0.087,west,1.5,Yes
2020/11/02,23:30,0.180,0.160,0.256,0.241,0.244,0.142,0.087,west,3.3,Yes
2020/11/02,23:40,0.178,0.160,0.256,0.242,0.244,0.141,0.087,northeast,0.9,Yes
2020/11/02,23:50,0.180,0.158,0.255,0.242,0.245,0.140,0.087,east-northeast,1.7,Yes
